GW5212 Weather Reports


Display with metric or nautical units.
time (UTC)temp
F
wind
direction
speed
MPH
gust
MPH
rain 1hr
in
rain 24hr
in
rain mn
in
humidity
%
barometer
mb
20260509064540 73 31 3.0 15.0 0.00 0.19 0.00 93 1020.5
20260509063525 73 21 1.0 10.0 0.00 0.19 0.00 94 1020.4
20260509062540 73 53 2.0 12.0 0.00 0.19 0.00 93 1020.5
20260509061545 73 30 1.0 10.0 0.00 0.19 0.00 92 1020.6
20260509060519 73 23 2.0 10.0 0.00 0.19 0.00 91 1020.8
20260509055525 73 22 1.0 10.0 0.00 0.19 0.00 90 1020.9
20260509054522 74 30 4.0 15.0 0.00 0.19 0.00 90 1020.9
20260509053522 74 40 3.0 15.0 0.00 0.19 0.00 91 1020.9
20260509052641 75 40 3.0 15.0 0.00 0.19 0.00 90 1020.9
20260509051518 75 7 4.0 22.0 0.00 0.19 0.00 89 1020.9
20260509050521 75 51 6.0 22.0 0.00 0.19 0.00 88 1021.0
20260509045522 75 32 4.0 15.0 0.00 0.20 0.00 88 1021.0
20260509044540 75 39 4.0 15.0 0.00 0.20 0.00 88 1021.2
20260509043543 75 32 5.0 17.0 0.00 0.20 0.00 89 1021.4
20260509042525 76 41 2.0 15.0 0.00 0.20 0.00 88 1021.4
20260509041518 76 43 3.0 15.0 0.00 0.20 0.00 88 1021.4
20260509040521 77 43 3.0 12.0 0.00 0.20 0.00 87 1021.4
20260509035519 77 34 1.0 7.0 0.00 0.20 0.00 87 1021.5
20260509034521 78 5 1.0 7.0 0.00 0.20 0.00 85 1021.5
20260509033522 77 68 0.0 7.0 0.00 0.20 0.00 86 1021.5
20260509032518 77 42 0.0 7.0 0.00 0.20 0.00 86 1021.7
20260509031519 77 53 0.0 5.0 0.00 0.20 0.00 86 1021.8
20260509030519 77 43 2.0 10.0 0.00 0.20 0.00 86 1021.8
20260509025519 77 29 1.0 10.0 0.00 0.20 0.00 86 1021.9
20260509024521 78 47 1.0 7.0 0.00 0.20 0.00 85 1021.8
20260509023523 78 13 0.0 7.0 0.00 0.20 0.00 85 1021.7
20260509022521 78 43 1.0 7.0 0.00 0.20 0.00 85 1021.6
20260509021523 77 88 0.0 5.0 0.00 0.20 0.00 86 1021.8
20260509020600 77 354 0.0 2.0 0.00 0.20 0.00 86 1021.9
20260509015539 77 37 0.0 7.0 0.00 0.20 0.00 87 1021.9
20260509014521 76 29 1.0 7.0 0.00 0.20 0.00 87 1021.8
20260509013543 76 357 0.0 5.0 0.00 0.20 0.00 90 1021.8
20260509012519 76 351 0.0 7.0 0.00 0.20 0.00 92 1021.8
20260509011518 77 37 0.0 7.0 0.00 0.20 0.00 92 1021.7
20260509010542 78 74 0.0 5.0 0.00 0.20 0.00 88 1021.6
20260509005522 78 356 0.0 0.0 0.00 0.20 0.00 87 1021.5
20260509004521 78 86 0.0 0.0 0.00 0.20 0.00 86 1021.3
20260509003519 77 51 0.0 0.0 0.00 0.20 0.00 86 1021.4
20260509002523 77 318 0.0 0.0 0.00 0.20 0.00 87 1021.3
20260509001542 76 251 0.0 0.0 0.00 0.20 0.00 88 1021.3
20260509000518 76 211 0.0 0.0 0.00 0.20 0.00 88 1021.2
20260508235522 76 85 0.0 0.0 0.00 0.20 0.00 90 1021.1
20260508234518 75 300 0.0 0.0 0.00 0.20 0.00 90 1020.9
20260508233518 75 244 0.0 0.0 0.00 0.20 0.00 91 1020.8
20260508232538 74 219 0.0 0.0 0.00 0.20 0.00 93 1020.7
20260508231522 74 282 0.0 0.0 0.00 0.20 0.00 92 1020.7
20260508230521 73 284 0.0 0.0 0.00 0.20 0.00 93 1020.5
20260508225522 73 2 0.0 0.0 0.00 0.20 0.00 95 1020.3
20260508224522 73 323 0.0 0.0 0.00 0.20 0.00 96 1020.4
20260508223523 73 293 0.0 0.0 0.00 0.20 0.00 97 1020.4
20260508222519 73 304 0.0 0.0 0.00 0.20 0.00 98 1020.4
20260508221518 73 30 0.0 0.0 0.00 0.20 0.00 98 1020.3
20260508220518 73 60 0.0 0.0 0.00 0.20 0.00 99 1020.1
20260508215518 73 287 0.0 0.0 0.00 0.20 0.00 99 1020.1
20260508214519 73 243 0.0 0.0 0.00 0.20 0.00 98 1020.0
20260508213518 73 233 0.0 0.0 0.00 0.20 0.00 98 1019.9
20260508212522 72 249 0.0 0.0 0.00 0.20 0.00 98 1019.8
20260508211518 73 279 0.0 0.0 0.00 0.20 0.00 98 1019.7
20260508210521 73 269 0.0 0.0 0.00 0.20 0.00 98 1019.7
20260508205519 73 285 0.0 0.0 0.00 0.20 0.00 98 1019.6
20260508204521 73 272 0.0 0.0 0.00 0.20 0.00 98 1019.6
20260508203519 73 266 0.0 0.0 0.00 0.20 0.00 98 1019.5
20260508202540 73 229 0.0 0.0 0.00 0.20 0.00 98 1019.5
20260508201518 73 242 0.0 0.0 0.00 0.20 0.00 97 1019.4
20260508200518 73 273 0.0 0.0 0.00 0.20 0.00 97 1019.3
20260508195519 73 244 0.0 0.0 0.00 0.20 0.00 97 1019.2
20260508194518 73 265 0.0 0.0 0.00 0.20 0.00 97 1019.1
20260508193518 73 261 0.0 0.0 0.00 0.20 0.00 97 1019.3
20260508192522 73 260 0.0 0.0 0.00 0.20 0.00 98 1019.1
20260508191518 73 279 0.0 0.0 0.00 0.20 0.00 98 1019.2
20260508190519 73 243 0.0 0.0 0.00 0.20 0.00 98 1019.3
20260508185523 73 254 0.0 0.0 0.00 0.20 0.00 98 1019.3
20260508184524 73 283 0.0 0.0 0.00 0.20 0.00 99 1019.4
20260508183523 73 337 0.0 0.0 0.00 0.20 0.00 99 1019.4
20260508182605 73 281 0.0 0.0 0.00 0.20 0.00 99 1019.5
20260508181524 73 261 0.0 0.0 0.00 0.20 0.00 99 1019.5
20260508180525 73 264 0.0 0.0 0.00 0.20 0.00 99 1019.6
20260508175524 73 257 0.0 0.0 0.00 0.20 0.00 99 1019.5
20260508174518 73 122 0.0 0.0 0.00 0.20 0.00 99 1019.6
20260508173605 72 297 0.0 0.0 0.00 0.20 0.00 99 1019.6
20260508172524 72 235 0.0 0.0 0.00 0.20 0.00 99 1019.8
20260508171524 72 272 0.0 0.0 0.00 0.20 0.00 99 1019.9
20260508170518 72 274 0.0 0.0 0.00 0.20 0.00 99 1020.1
20260508165524 73 275 0.0 0.0 0.00 0.20 0.00 99 1020.2
20260508164519 73 211 0.0 0.0 0.00 0.20 0.00 99 1020.1
20260508163523 73 329 0.0 0.0 0.00 0.20 0.00 99 1020.2
20260508162539 73 347 0.0 0.0 0.00 0.20 0.00 99 1020.3
20260508161520 73 265 0.0 0.0 0.00 0.20 0.00 99 1020.4
20260508160518 73 249 0.0 0.0 0.00 0.20 0.00 99 1020.5
20260508155524 73 258 0.0 0.0 0.00 0.20 0.20 99 1020.6
20260508154519 73 312 0.0 0.0 0.00 0.20 0.20 99 1020.6
20260508153540 73 275 0.0 0.0 0.00 0.20 0.20 99 1020.7
20260508152642 73 221 0.0 0.0 0.00 0.20 0.20 99 1020.8
20260508151518 73 214 0.0 0.0 0.00 0.20 0.20 99 1020.7
20260508150523 73 220 0.0 0.0 0.00 0.20 0.20 99 1020.7
20260508145541 73 284 0.0 0.0 0.00 0.20 0.20 99 1020.7
20260508144521 73 225 0.0 0.0 0.00 0.20 0.20 99 1020.8
20260508143520 73 245 0.0 0.0 0.00 0.20 0.20 99 1020.7
20260508142521 73 268 0.0 0.0 0.00 0.20 0.20 99 1020.8
20260508141518 74 285 0.0 0.0 0.00 0.20 0.20 99 1020.8
20260508140518 74 271 0.0 0.0 0.00 0.20 0.20 99 1020.7
20260508135601 74 301 0.0 0.0 0.00 0.20 0.20 99 1020.7
20260508134518 74 231 0.0 0.0 0.01 0.20 0.20 99 1020.8
20260508133520 74 177 0.0 0.0 0.02 0.20 0.20 99 1020.6
20260508132523 74 203 0.0 0.0 0.04 0.20 0.20 99 1020.5
20260508131518 74 198 0.0 0.0 0.04 0.20 0.20 99 1020.5
20260508130602 74 248 0.0 0.0 0.04 0.20 0.20 99 1020.3
20260508125520 74 249 0.0 0.0 0.04 0.20 0.20 99 1020.3
20260508123539 74 281 0.0 0.0 0.01 0.18 0.18 99 1020.3
20260508122521 74 265 0.0 0.0 0.00 0.17 0.17 99 1019.9
20260508121520 74 221 0.0 0.0 0.00 0.17 0.17 99 1019.8
20260508120521 74 249 0.0 0.0 0.00 0.17 0.17 99 1019.7
20260508115523 74 271 0.0 0.0 0.00 0.17 0.17 99 1019.6
20260508114519 74 250 0.0 0.0 0.01 0.17 0.17 99 1019.5
20260508113520 74 284 0.0 0.0 0.02 0.17 0.17 99 1019.5
20260508112521 74 259 0.0 0.0 0.08 0.17 0.17 99 1019.4
20260508111518 74 267 0.0 0.0 0.11 0.17 0.17 99 1019.3
20260508110518 74 274 0.0 0.0 0.12 0.17 0.17 99 1019.2
20260508105540 74 313 0.0 0.0 0.13 0.17 0.17 99 1019.0
20260508104603 74 77 0.0 0.0 0.13 0.15 0.15 99 1019.0
20260508103518 74 255 0.0 0.0 0.12 0.14 0.14 99 1018.8
20260508102518 75 335 0.0 0.0 0.06 0.08 0.08 99 1018.8
20260508101520 75 249 0.0 0.0 0.05 0.06 0.06 99 1018.8
20260508100542 75 9 0.0 0.0 0.04 0.05 0.05 98 1018.6
20260508095519 76 20 0.0 5.0 0.02 0.04 0.04 97 1018.6
20260508094518 76 351 0.0 5.0 0.01 0.02 0.02 96 1018.5
20260508093520 77 11 1.0 7.0 0.01 0.02 0.02 95 1018.4
20260508092518 77 282 0.0 0.0 0.01 0.02 0.02 95 1018.2
20260508091520 77 241 0.0 0.0 0.00 0.01 0.01 93 1018.0
20260508090521 78 329 0.0 0.0 0.00 0.01 0.01 93 1017.9
20260508085518 78 71 0.0 0.0 0.00 0.01 0.01 91 1017.8
20260508084519 78 243 0.0 0.0 0.00 0.01 0.01 90 1017.9
20260508083518 78 16 0.0 2.0 0.00 0.01 0.01 89 1017.7
20260508082521 79 9 0.0 0.0 0.00 0.01 0.01 89 1017.8
20260508081521 79 5 0.0 5.0 0.00 0.01 0.01 89 1017.7
20260508080518 79 42 0.0 5.0 0.00 0.01 0.01 89 1017.6
20260508075520 79 357 0.0 5.0 0.00 0.01 0.01 88 1017.7
20260508074521 79 13 1.0 10.0 0.00 0.01 0.01 88 1017.5
20260508073518 79 9 0.0 7.0 0.00 0.01 0.01 88 1017.4
20260508072518 79 343 0.0 0.0 0.00 0.01 0.01 89 1017.4
20260508071518 79 25 3.0 15.0 0.00 0.01 0.01 89 1017.6
20260508070540 79 23 0.0 5.0 0.00 0.01 0.01 89 1017.8
20260508065521 79 30 1.0 7.0 0.00 0.01 0.01 89 1017.8